Вернуться в каталог

STARLINK-32635

АктивенСвязьVLEO
NORAD 62155·PAYLOAD·🇺🇸 United States

Запущен Nov 30, 2024 с Cape Canaveral Space Force Station

Loading…

Ближайшие Пролёты (ближайшие 24 часа)

TLE

СвежийSource: CelesTrak SupGP

Эпоха: Sep 15, 2026, 03:13 UTC

1 62155C 24224S   26258.13451389 -.00015427  00000+0 -55886-3 0  2583
2 62155  43.0000 175.7999 0001398 271.5676 154.2987 15.27580550    15

Отслеживайте STARLINK-32635 в реальном времени с AllMySat

Download on the App Store